• Join FlightAware (Why Join?)
  • Login
  • US Flag 
05:25AM EST


 

Airport Tracker/Info


-or-


 

Live Flight TrackerFlight Track Log ✈ SWA378 ✈ 02.05.2013 ✈ KATL - KORF

Flight Track Log - Related Links

Times and Time Zones

All times are in EDT time to prevent confusion due to time zone crossing. See the SWA378 flight status page for this flight to view local times or setup timezone preferences in your user account.

Time Position Orientation Groundspeed Altitude Reporting Facility
EDT Latitude Longitude Course Direction KTS MPH feet Rate Location/Type
06:38PM 33.6333 -84.3833 90° East 173 199 3,900  Level Atlanta TRACON
06:39PM 33.6333 -84.3000 90° East 254 292 7,000 2,700 Climbing Atlanta TRACON
06:42PM 33.6356 -84.0661 89° East 300 345 13,500 2,940 Climbing Atlanta Center
06:43PM 33.6419 -83.9539 86° East 320 368 17,300 2,880 Climbing Atlanta Center
06:44PM 33.6500 -83.8342 85° East 342 394 19,300 2,280 Climbing Atlanta Center
06:45PM 33.6581 -83.7069 86° East 375 432 21,900 1,800 Climbing Atlanta Center
06:46PM 33.6869 -83.5744 75° East 395 455 23,000 1,380 Climbing Atlanta Center
06:47PM 33.7386 -83.4492 64° Northeast 410 472 24,700 1,860 Climbing Atlanta Center
06:48PM 33.7942 -83.3114 64° Northeast 415 478 26,800 1,800 Climbing Atlanta Center
06:49PM 33.8517 -83.1783 62° Northeast 429 494 28,400 1,200 Climbing Atlanta Center
06:50PM 33.9217 -83.0475 57° Northeast 445 512 29,300 1,320 Climbing Atlanta Center
06:51PM 33.9872 -82.9064 61° Northeast 462 532 31,100 1,980 Climbing Atlanta Center
06:52PM 34.0528 -82.7703 60° Northeast 470 541 33,300 1,980 Climbing Atlanta Center
06:53PM 34.1203 -82.6361 59° Northeast 470 541 35,100 1,740 Climbing Atlanta Center
06:54PM 34.1853 -82.5019 60° Northeast 463 533 36,800 1,560 Climbing Atlanta Center
06:55PM 34.2483 -82.3650 61° Northeast 463 533 38,300 1,080 Climbing Atlanta Center
06:56PM 34.3111 -82.2306 60° Northeast 463 533 39,000 300 Climbing Atlanta Center
06:57PM 34.3758 -82.1008 59° Northeast 463 533 39,000  Level Atlanta Center
06:58PM 34.4364 -81.9661 61° Northeast 458 527 39,000  Level Atlanta Center
06:59PM 34.5008 -81.8333 59° Northeast 458 527 39,000  Level Atlanta Center
07:00PM 34.5631 -81.7006 60° Northeast 452 520 39,000  Level Atlanta Center
07:01PM 34.6292 -81.5650 59° Northeast 452 520 39,000  Level Atlanta Center
07:02PM 34.6889 -81.4292 62° Northeast 452 520 39,000  Level Atlanta Center
07:03PM 34.7506 -81.2908 61° Northeast 452 520 39,000  Level Atlanta Center
07:04PM 34.8144 -81.1547 60° Northeast 457 526 39,000  Level Atlanta Center
07:05PM 34.8778 -81.0208 60° Northeast 457 526 39,000  Level Atlanta Center
07:06PM 34.9431 -80.8764 61° Northeast 471 542 39,000  Level Atlanta Center
07:07PM 35.0083 -80.7347 61° Northeast 465 535 39,000  Level Atlanta Center
07:08PM 35.0692 -80.5978 61° Northeast 460 529 39,000  Level Atlanta Center
07:10PM 35.2175 -80.2675 61° Northeast 461 531 39,000 -240 Level Washington Center
07:11PM 35.2794 -80.1261 62° Northeast 461 531 38,300 -900 Descending Washington Center
07:12PM 35.3450 -79.9897 59° Northeast 461 531 37,300 -660 Descending Washington Center
07:13PM 35.4064 -79.8478 62° Northeast 461 531 37,000 -360 Descending Washington Center
07:14PM 35.4658 -79.7031 63° Northeast 466 536 36,600 -720 Descending Washington Center
07:15PM 35.5064 -79.5519 72° East 466 536 35,600 -960 Descending Washington Center
07:16PM 35.5489 -79.3983 71° East 466 536 34,700 -900 Descending Washington Center
07:17PM 35.5869 -79.2469 73° East 466 536 33,800 -960 Descending Washington Center
07:18PM 35.6272 -79.0878 73° East 473 544 32,800 -1,020 Descending Washington Center
07:19PM 35.6669 -78.9361 72° East 473 544 31,800 -960 Descending Washington Center
07:20PM 35.7111 -78.7769 71° East 473 544 30,900 -960 Descending Washington Center
07:21PM 35.7506 -78.6197 73° East 473 544 29,900 -960 Descending Washington Center
07:22PM 35.7853 -78.4803 73° East 473 544 29,100 -480 Descending Washington Center
07:23PM 35.8244 -78.3281 72° East 468 539 29,000 -60 Descending Washington Center
07:24PM 35.8633 -78.1731 73° East 468 539 29,000  Level Washington Center
07:25PM 35.9019 -78.0228 72° East 468 539 29,000  Level Washington Center
07:26PM 35.9383 -77.8700 74° East 463 533 29,000 -1,560 Level Washington Center
07:27PM 35.9744 -77.7222 73° East 457 526 26,000 -3,000 Descending Washington Center
07:28PM 36.0331 -77.5878 62° Northeast 446 513 22,900 -2,580 Descending Washington Center
07:29PM 36.0956 -77.4633 58° Northeast 433 498 21,000 -1,020 Descending Washington Center
07:30PM 36.1536 -77.3411 60° Northeast 417 480 21,000  Level Washington Center
07:31PM 36.2117 -77.2189 59° Northeast 410 472 21,000 -840 Level Washington Center
07:32PM 36.2675 -77.0964 60° Northeast 404 465 19,400 -2,100 Descending Washington Center
07:33PM 36.3083 -77.0122 59° Northeast 397 457 17,700 -2,700 Descending Washington Center
07:33PM 36.3211 -76.9789 65° Northeast 399 459 16,800 -2,640 Descending Washington Center
07:33PM 36.3575 -76.9047 59° Northeast 387 445 15,300 -2,280 Descending Washington Center
07:34PM 36.3767 -76.8689 56° Northeast 387 445 14,500 -2,280 Descending Washington Center
07:35PM 36.4444 -76.7822 46° Northeast 350 403 12,300 -1,920 Descending Washington Center
07:36PM 36.5036 -76.6953 50° Northeast 312 359 10,900 -1,380 Descending Washington Center
07:37PM 36.5564 -76.6236 47° Northeast 279 321 9,500 -1,080 Descending Washington Center
07:38PM 36.5922 -76.5647 53° Northeast 214 246 8,900 -1,140 Descending Washington Center
07:39PM 36.6325 -76.5056 50° Northeast 221 254 7,400 -1,500 Descending Washington Center
07:40PM 36.6683 -76.4542 49° Northeast 208 239 6,100 -1,200 Descending Washington Center
07:40PM 36.6747 -76.4439 52° Northeast 214 246 6,000 -1,140 Descending Washington Center
07:41PM 36.6978 -76.4131 47° Northeast 170 196 5,100 -1,440 Descending Washington Center
07:41PM 36.7083 -76.3950 54° Northeast 180 207 4,600 -1,200 Descending Washington Center
07:42PM 36.7253 -76.3719 47° Northeast 138 159 3,900 -1,320 Descending Washington Center
07:42PM 36.7336 -76.3564 56° Northeast 154 177 3,300 -1,440 Descending Washington Center
07:43PM 36.7525 -76.3386 37° Northeast 138 159 2,500 -900 Descending Washington Center
07:43PM 36.7733 -76.3206 35° Northeast 123 142 2,000 -540 Descending Washington Center
07:44PM 36.8008 -76.2922 40° Northeast 121 139 1,600 -420 Descending Washington Center